北斗 I6 (BEIDOU IGSO-6)

导读

BEIDOU-2 IGSO-6 是中国北斗二号卫星导航系统中的一颗倾斜地球同步轨道(IGSO)卫星,于2012年发射。该卫星运行在高度约35,900公里的轨道上,倾角约为55度,主要用于增强北斗系统在中国及周边地区的定位、导航和授时服务。IGSO-6 的加入提升了系统的空间覆盖率和信号稳定性,为用户提供更精准、可靠的导航服务,是中国构建自主卫星导航体系的重要组成部分。

基本信息
目录编号:
41434
目录名称:
BEIDOU IGSO-6
国际标识:
2016-021A
轨道中心:
EARTH
卫星名称:
北斗 I6
卫星全名:
北斗 I6 (BEIDOU IGSO-6)
卫星状态:
在轨 (已飞行3820 天)
发射日期:
2016-03-29 UTC
国别 :
中国 (CN)
星等 :
--
该卫星已列入 空间交会检测服务 Space Conjunction Data Service (SCDS) ,当前飞行风险评估等级: 无高风险
轨道信息
数据来源 国际轨道数据 AOE轨道数据
星历时间 2026-09-13T04:21:42+0800
8小时前
查看轨道信息
2026-09-10T05:00:00+0800
3天前
查看轨道信息
半长轴 42161.757km 42161.673km
偏心率 0.0061684 0.0061522
轨道倾角 60.356° 60.352°
近地点辐角 228.225° 228.228°
升交点赤经 37.173° 37.202°
平近点角 128.231° 134.778°
近地点 35523.549km 35524.148km
远地点 36043.691km 36042.924km
周期 1435.945分钟 1435.941分钟
每日圈数 1.002824 1.002827
详细信息
卫星平台:
东方红三号
平衡模式:
三轴稳定
制造商(研发单位):
中国空间技术研究院
制造商所在国:
中国
使用方式:
暂无
卫星简介
北斗卫星导航系统是中国着眼于国家安全和经济社会发展需要,自主建设运行的全球卫星导航系统,是为全球用户提供全天候、全天时、高精度的定位、导航和授时服务的国家重要时空基础设施。该卫星仍在工作。
2D轨道图
3D轨道图
轨道高度分析图
轨道倾角分析图
轨道综合分析图
查看轨道综合分析图
与全量物体交会距离演化趋势
与全量物体交会风险概率演化趋势